{"data":{"norad_id":68273,"epoch":"2026-09-19T22:12:07.234272Z","epoch_age_seconds":100778,"freshness":"FRESH","line1":"1 68273U 26055M   26262.92508373  .00017100  00000+0  51600-3 0  9992","line2":"2 68273  53.1569 132.4943 0000909  88.7558 271.3548 15.34404633 29736","mean_motion":15.34404633,"eccentricity":9.09e-5,"inclination_deg":53.1569,"raan_deg":132.4943,"arg_perigee_deg":88.7558,"mean_anomaly_deg":271.3548,"bstar":0.000516,"rev_number":2973,"period_min":93.847474716273,"perigee_km":462.06763886327,"apogee_km":463.31130111551,"semimajor_km":6840.8264699894,"source":"CELESTRAK","updated_at":"2026-09-20T09:00:43.848150Z"}}